Location: Haut Kerinec
(48.0623°N, 4.4081°W)
Time: 20:41:38
(UTC+00:00)

Cosmos 1833 Rocket - Pass Details

Date: 01 June 2020
Orbit: 833 x 839 km, 71.0° (Epoch: 11 July)

Event Time Altitude Azimuth Distance (km) Brightness Sun altitude
Rises 21:28:06 0° 323° (NW) 3,391 8.2 -10.3°
Reaches altitude 10° 21:30:54 10° 311° (NW) 2,453 6.6 -10.6°
Maximum altitude 21:35:26 26° 257° (WSW) 1,597 4.4 -11.1°
Drops below altitude 10° 21:39:58 10° 203° (SSW) 2,441 4.8 -11.6°
Enters shadow 21:42:07 - 193° (SSW) 3,151 5.3 -11.8°
